Time,TemperatureF,DewpointF,PressureIn,WindDirection,WindDirectionDegrees,WindSpeedMPH,WindSpeedGustMPH,Humidity,HourlyPrecipIn,Conditions,Clouds,dailyrainin,SoftwareType,DateUTC
2013-07-23 00:01:00,77.6,74.4,29.82,SSW,192,2.0,3.0,90,0.00,,,0.00,WUHU216DAVISVP2,2013-07-23 05:01:00,
2013-07-23 00:06:00,77.7,74.8,29.82,SW,217,2.0,4.0,91,0.00,,,0.00,WUHU216DAVISVP2,2013-07-23 05:06:00,
2013-07-23 00:11:00,77.7,74.8,29.82,SSW,205,2.0,4.0,91,0.00,,,0.00,WUHU216DAVISVP2,2013-07-23 05:11:00,
2013-07-23 00:16:00,77.7,74.8,29.82,SSW,211,0.0,3.0,91,0.00,,,0.00,WUHU216DAVISVP2,2013-07-23 05:16:00,
2013-07-23 00:21:00,77.7,74.8,29.82,SSW,203,2.0,4.0,91,0.00,,,0.00,WUHU216DAVISVP2,2013-07-23 05:21:00,
2013-07-23 00:26:00,77.6,74.7,29.81,SSW,210,2.0,4.0,91,0.00,,,0.00,WUHU216DAVISVP2,2013-07-23 05:26:00,
2013-07-23 00:31:00,77.6,74.7,29.81,SW,216,3.0,4.0,91,0.00,,,0.00,WUHU216DAVISVP2,2013-07-23 05:31:00,
2013-07-23 00:36:00,77.5,74.7,29.81,South,174,3.0,5.0,91,0.00,,,0.00,WUHU216DAVISVP2,2013-07-23 05:36:00,
2013-07-23 00:41:00,77.5,75.0,29.81,SSW,205,2.0,5.0,92,0.00,,,0.00,WUHU216DAVISVP2,2013-07-23 05:41:00,
2013-07-23 00:46:00,77.4,74.9,29.81,SSW,207,1.0,3.0,92,0.00,,,0.00,WUHU216DAVISVP2,2013-07-23 05:46:00,
2013-07-23 00:51:00,77.4,74.9,29.81,SSW,203,1.0,3.0,92,0.00,,,0.00,WUHU216DAVISVP2,2013-07-23 05:51:00,
2013-07-23 00:56:00,77.4,74.9,29.81,SW,221,0.0,2.0,92,0.00,,,0.00,WUHU216DAVISVP2,2013-07-23 05:56:00,
2013-07-23 01:01:00,77.3,74.8,29.81,SW,214,1.0,3.0,92,0.00,,,0.00,WUHU216DAVISVP2,2013-07-23 06:01:00,
2013-07-23 01:06:00,77.3,74.8,29.81,South,186,2.0,4.0,92,0.00,,,0.00,WUHU216DAVISVP2,2013-07-23 06:06:00,
2013-07-23 01:11:00,77.3,74.8,29.81,SSW,205,1.0,4.0,92,0.00,,,0.00,WUHU216DAVISVP2,2013-07-23 06:11:00,
2013-07-23 01:16:00,77.2,74.7,29.82,SSW,206,1.0,4.0,92,0.00,,,0.00,WUHU216DAVISVP2,2013-07-23 06:16:00,
2013-07-23 01:21:00,77.1,74.9,29.82,SSW,202,0.0,3.0,93,0.00,,,0.00,WUHU216DAVISVP2,2013-07-23 06:21:00,
2013-07-23 01:26:00,77.0,74.8,29.82,SSW,192,0.0,2.0,93,0.00,,,0.00,WUHU216DAVISVP2,2013-07-23 06:26:00,
2013-07-23 01:31:00,76.9,74.7,29.82,SSW,207,0.0,2.0,93,0.00,,,0.00,WUHU216DAVISVP2,2013-07-23 06:31:00,
2013-07-23 01:36:00,76.9,74.7,29.82,SSW,207,0.0,0.0,93,0.00,,,0.00,WUHU216DAVISVP2,2013-07-23 06:36:00,
2013-07-23 01:41:00,76.8,74.6,29.82,SSW,207,0.0,0.0,93,0.00,,,0.00,WUHU216DAVISVP2,2013-07-23 06:41:00,
2013-07-23 01:46:00,76.8,74.6,29.82,SSW,207,0.0,1.0,93,0.00,,,0.00,WUHU216DAVISVP2,2013-07-23 06:46:00,
2013-07-23 01:51:00,76.7,74.5,29.82,SSW,207,0.0,1.0,93,0.00,,,0.00,WUHU216DAVISVP2,2013-07-23 06:51:00,
2013-07-23 01:56:00,76.5,74.3,29.82,SSW,207,0.0,0.0,93,0.00,,,0.00,WUHU216DAVISVP2,2013-07-23 06:56:00,
2013-07-23 02:01:00,76.4,74.2,29.82,SSW,207,0.0,0.0,93,0.00,,,0.00,WUHU216DAVISVP2,2013-07-23 07:01:00,
2013-07-23 02:06:00,76.2,74.3,29.82,SSW,207,0.0,0.0,94,0.00,,,0.00,WUHU216DAVISVP2,2013-07-23 07:06:00,
2013-07-23 02:11:00,76.0,74.1,29.81,SSW,207,0.0,0.0,94,0.00,,,0.00,WUHU216DAVISVP2,2013-07-23 07:11:00,
2013-07-23 02:16:00,76.0,74.4,29.81,SSW,210,1.0,1.0,95,0.00,,,0.00,WUHU216DAVISVP2,2013-07-23 07:16:00,
2013-07-23 02:21:00,76.1,74.5,29.81,SSW,210,0.0,1.0,95,0.00,,,0.00,WUHU216DAVISVP2,2013-07-23 07:21:00,
2013-07-23 02:26:00,76.1,74.2,29.81,SW,227,0.0,1.0,94,0.00,,,0.00,WUHU216DAVISVP2,2013-07-23 07:26:00,
2013-07-23 02:31:00,76.0,74.1,29.81,SW,221,2.0,2.0,94,0.00,,,0.00,WUHU216DAVISVP2,2013-07-23 07:31:00,
2013-07-23 02:36:00,76.0,74.1,29.81,SW,225,0.0,2.0,94,0.00,,,0.00,WUHU216DAVISVP2,2013-07-23 07:36:00,
2013-07-23 02:41:00,76.0,74.1,29.82,SW,225,1.0,2.0,94,0.00,,,0.00,WUHU216DAVISVP2,2013-07-23 07:41:00,
2013-07-23 02:46:00,76.0,74.1,29.81,SW,217,0.0,2.0,94,0.00,,,0.00,WUHU216DAVISVP2,2013-07-23 07:46:00,
2013-07-23 02:51:00,76.0,74.1,29.82,SW,231,1.0,2.0,94,0.00,,,0.00,WUHU216DAVISVP2,2013-07-23 07:51:00,
2013-07-23 02:56:00,76.1,74.2,29.82,WSW,243,3.0,4.0,94,0.00,,,0.00,WUHU216DAVISVP2,2013-07-23 07:56:00,
2013-07-23 03:01:00,76.2,74.0,29.82,SW,214,1.0,4.0,93,0.00,,,0.00,WUHU216DAVISVP2,2013-07-23 08:01:00,
2013-07-23 03:06:00,76.2,74.0,29.82,WSW,249,0.0,3.0,93,0.00,,,0.00,WUHU216DAVISVP2,2013-07-23 08:06:00,
2013-07-23 03:11:00,76.1,73.9,29.82,WSW,253,0.0,3.0,93,0.00,,,0.00,WUHU216DAVISVP2,2013-07-23 08:11:00,
2013-07-23 03:16:00,76.0,73.8,29.82,SW,223,0.0,2.0,93,0.00,,,0.00,WUHU216DAVISVP2,2013-07-23 08:16:00,
2013-07-23 03:21:00,76.0,73.5,29.82,WSW,238,0.0,2.0,92,0.00,,,0.00,WUHU216DAVISVP2,2013-07-23 08:21:00,
2013-07-23 03:26:00,76.1,73.6,29.82,South,191,1.0,3.0,92,0.00,,,0.00,WUHU216DAVISVP2,2013-07-23 08:26:00,
2013-07-23 03:31:00,76.1,73.6,29.82,SW,215,2.0,3.0,92,0.00,,,0.00,WUHU216DAVISVP2,2013-07-23 08:31:00,
2013-07-23 03:36:00,76.2,73.4,29.82,West,265,0.0,3.0,91,0.00,,,0.00,WUHU216DAVISVP2,2013-07-23 08:36:00,
2013-07-23 03:41:00,76.1,73.3,29.82,West,259,0.0,3.0,91,0.00,,,0.00,WUHU216DAVISVP2,2013-07-23 08:41:00,
2013-07-23 03:46:00,76.1,73.3,29.81,SW,226,0.0,3.0,91,0.00,,,0.00,WUHU216DAVISVP2,2013-07-23 08:46:00,
2013-07-23 03:51:00,75.8,73.3,29.81,SSW,211,0.0,0.0,92,0.00,,,0.00,WUHU216DAVISVP2,2013-07-23 08:51:00,
2013-07-23 03:56:00,75.6,73.1,29.81,SW,219,2.0,3.0,92,0.00,,,0.00,WUHU216DAVISVP2,2013-07-23 08:56:00,
2013-07-23 04:01:00,75.5,73.0,29.80,SW,233,2.0,3.0,92,0.00,,,0.00,WUHU216DAVISVP2,2013-07-23 09:01:00,
2013-07-23 04:06:00,75.3,72.8,29.80,SW,226,2.0,3.0,92,0.00,,,0.00,WUHU216DAVISVP2,2013-07-23 09:06:00,
2013-07-23 04:11:00,75.2,72.7,29.79,SSW,203,0.0,3.0,92,0.00,,,0.00,WUHU216DAVISVP2,2013-07-23 09:11:00,
2013-07-23 04:16:00,75.1,72.9,29.78,WSW,250,1.0,3.0,93,0.00,,,0.00,WUHU216DAVISVP2,2013-07-23 09:16:00,
2013-07-23 04:21:00,75.0,72.8,29.77,SSW,213,2.0,2.0,93,0.00,,,0.00,WUHU216DAVISVP2,2013-07-23 09:21:00,
2013-07-23 04:26:00,75.0,72.8,29.77,SSW,203,1.0,3.0,93,0.00,,,0.00,WUHU216DAVISVP2,2013-07-23 09:26:00,
2013-07-23 04:31:00,75.1,72.6,29.77,SSW,201,1.0,3.0,92,0.00,,,0.00,WUHU216DAVISVP2,2013-07-23 09:31:00,
2013-07-23 04:36:00,74.9,72.7,29.77,SSW,203,0.0,3.0,93,0.00,,,0.00,WUHU216DAVISVP2,2013-07-23 09:36:00,
2013-07-23 04:41:00,74.8,72.6,29.77,SSW,210,1.0,2.0,93,0.00,,,0.00,WUHU216DAVISVP2,2013-07-23 09:41:00,
2013-07-23 04:46:00,74.8,72.6,29.77,SSW,212,0.0,1.0,93,0.00,,,0.00,WUHU216DAVISVP2,2013-07-23 09:46:00,
2013-07-23 04:51:00,74.6,72.4,29.76,WSW,239,0.0,1.0,93,0.00,,,0.00,WUHU216DAVISVP2,2013-07-23 09:51:00,
2013-07-23 04:56:00,74.4,72.2,29.76,WSW,239,0.0,0.0,93,0.00,,,0.00,WUHU216DAVISVP2,2013-07-23 09:56:00,
2013-07-23 05:01:00,74.2,72.4,29.75,SSW,206,2.0,3.0,94,0.00,,,0.00,WUHU216DAVISVP2,2013-07-23 10:01:00,
2013-07-23 05:06:00,74.2,72.3,29.75,SSW,205,1.0,4.0,94,0.00,,,0.00,WUHU216DAVISVP2,2013-07-23 10:06:00,
2013-07-23 05:11:00,74.2,72.3,29.76,SSW,210,4.0,6.0,94,0.00,,,0.00,WUHU216DAVISVP2,2013-07-23 10:11:00,
2013-07-23 05:16:00,74.1,72.2,29.76,South,179,2.0,6.0,94,0.00,,,0.00,WUHU216DAVISVP2,2013-07-23 10:16:00,
2013-07-23 05:21:00,74.0,72.1,29.77,SSW,195,2.0,5.0,94,0.00,,,0.00,WUHU216DAVISVP2,2013-07-23 10:21:00,
2013-07-23 05:26:00,73.9,72.0,29.77,SSW,213,2.0,4.0,94,0.00,,,0.00,WUHU216DAVISVP2,2013-07-23 10:26:00,
2013-07-23 05:31:00,73.8,71.9,29.76,SSW,210,1.0,4.0,94,0.00,,,0.00,WUHU216DAVISVP2,2013-07-23 10:31:00,
2013-07-23 05:36:00,73.7,71.9,29.76,SSW,203,0.0,2.0,94,0.00,,,0.00,WUHU216DAVISVP2,2013-07-23 10:36:00,
2013-07-23 05:41:00,73.6,71.8,29.76,SSW,203,1.0,1.0,94,0.00,,,0.00,WUHU216DAVISVP2,2013-07-23 10:41:00,
2013-07-23 05:46:00,73.5,71.6,29.77,SSW,205,1.0,2.0,94,0.00,,,0.00,WUHU216DAVISVP2,2013-07-23 10:46:00,
2013-07-23 05:51:00,73.4,71.5,29.77,SSW,212,0.0,2.0,94,0.00,,,0.00,WUHU216DAVISVP2,2013-07-23 10:51:00,
2013-07-23 05:56:00,73.4,71.9,29.78,SW,216,0.0,2.0,95,0.00,,,0.00,WUHU216DAVISVP2,2013-07-23 10:56:00,
2013-07-23 06:01:00,73.4,71.9,29.77,SW,228,0.0,0.0,95,0.00,,,0.00,WUHU216DAVISVP2,2013-07-23 11:01:00,
2013-07-23 06:06:00,73.4,71.9,29.76,SW,228,0.0,0.0,95,0.00,,,0.00,WUHU216DAVISVP2,2013-07-23 11:06:00,
2013-07-23 06:11:00,73.4,71.9,29.77,SW,226,0.0,0.0,95,0.00,,,0.00,WUHU216DAVISVP2,2013-07-23 11:11:00,
2013-07-23 06:16:00,73.6,71.8,29.77,SSW,208,0.0,0.0,94,0.00,,,0.00,WUHU216DAVISVP2,2013-07-23 11:16:00,
2013-07-23 06:21:00,73.8,72.0,29.78,SW,216,2.0,2.0,94,0.00,,,0.00,WUHU216DAVISVP2,2013-07-23 11:21:00,
2013-07-23 06:26:00,74.0,72.1,29.78,SSW,212,0.0,3.0,94,0.00,,,0.00,WUHU216DAVISVP2,2013-07-23 11:26:00,
2013-07-23 06:31:00,74.1,72.2,29.79,SW,219,0.0,3.0,94,0.00,,,0.00,WUHU216DAVISVP2,2013-07-23 11:31:00,
2013-07-23 06:36:00,74.1,72.2,29.78,SW,219,0.0,1.0,94,0.00,,,0.00,WUHU216DAVISVP2,2013-07-23 11:36:00,
2013-07-23 06:41:00,74.5,72.6,29.79,SW,219,0.0,1.0,94,0.00,,,0.00,WUHU216DAVISVP2,2013-07-23 11:41:00,
2013-07-23 06:46:00,75.1,72.9,29.79,SW,219,1.0,1.0,93,0.00,,,0.00,WUHU216DAVISVP2,2013-07-23 11:46:00,
2013-07-23 06:51:00,75.4,72.9,29.79,South,181,1.0,3.0,92,0.00,,,0.00,WUHU216DAVISVP2,2013-07-23 11:51:00,
2013-07-23 06:56:00,75.5,73.0,29.79,SW,217,3.0,3.0,92,0.00,,,0.00,WUHU216DAVISVP2,2013-07-23 11:56:00,
2013-07-23 07:01:00,75.5,72.7,29.80,SSW,206,2.0,4.0,91,0.00,,,0.00,WUHU216DAVISVP2,2013-07-23 12:01:00,
2013-07-23 07:06:00,75.6,72.8,29.80,SW,225,2.0,4.0,91,0.00,,,0.00,WUHU216DAVISVP2,2013-07-23 12:06:00,
2013-07-23 07:11:00,75.7,72.9,29.80,SW,235,2.0,4.0,91,0.00,,,0.00,WUHU216DAVISVP2,2013-07-23 12:11:00,
2013-07-23 07:16:00,75.9,73.4,29.80,SSW,213,1.0,4.0,92,0.00,,,0.00,WUHU216DAVISVP2,2013-07-23 12:16:00,
2013-07-23 07:21:00,75.9,72.7,29.80,SSW,199,2.0,4.0,90,0.00,,,0.00,WUHU216DAVISVP2,2013-07-23 12:21:00,
2013-07-23 07:26:00,76.1,73.3,29.80,SSW,200,1.0,4.0,91,0.00,,,0.00,WUHU216DAVISVP2,2013-07-23 12:26:00,
2013-07-23 07:31:00,76.2,73.1,29.80,SSW,196,1.0,3.0,90,0.00,,,0.00,WUHU216DAVISVP2,2013-07-23 12:31:00,
2013-07-23 07:36:00,76.2,73.0,29.81,SSW,208,2.0,3.0,90,0.00,,,0.00,WUHU216DAVISVP2,2013-07-23 12:36:00,
2013-07-23 07:41:00,76.2,73.1,29.81,SW,222,3.0,4.0,90,0.00,,,0.00,WUHU216DAVISVP2,2013-07-23 12:41:00,
2013-07-23 07:46:00,76.2,73.0,29.80,SW,231,1.0,4.0,90,0.00,,,0.00,WUHU216DAVISVP2,2013-07-23 12:46:00,
2013-07-23 07:51:00,76.4,72.9,29.80,SW,219,4.0,5.0,89,0.00,,,0.00,WUHU216DAVISVP2,2013-07-23 12:51:00,
2013-07-23 07:56:00,76.5,73.3,29.81,SSW,201,2.0,5.0,90,0.00,,,0.00,WUHU216DAVISVP2,2013-07-23 12:56:00,
2013-07-23 08:01:00,76.8,73.3,29.81,SW,217,2.0,4.0,89,0.00,,,0.00,WUHU216DAVISVP2,2013-07-23 13:01:00,
2013-07-23 08:06:00,77.0,73.2,29.81,SW,226,2.0,3.0,88,0.00,,,0.00,WUHU216DAVISVP2,2013-07-23 13:06:00,
2013-07-23 08:11:00,77.5,73.7,29.81,SW,227,2.0,4.0,88,0.00,,,0.00,WUHU216DAVISVP2,2013-07-23 13:11:00,
2013-07-23 08:16:00,78.1,73.9,29.82,WSW,252,0.0,4.0,87,0.00,,,0.00,WUHU216DAVISVP2,2013-07-23 13:16:00,
2013-07-23 08:21:00,78.5,73.7,29.82,SW,218,1.0,4.0,85,0.00,,,0.00,WUHU216DAVISVP2,2013-07-23 13:21:00,
2013-07-23 08:26:00,78.8,73.2,29.82,WSW,253,1.0,6.0,83,0.00,,,0.00,WUHU216DAVISVP2,2013-07-23 13:26:00,
2013-07-23 08:31:00,79.2,74.0,29.82,West,280,3.0,6.0,84,0.00,,,0.00,WUHU216DAVISVP2,2013-07-23 13:31:00,
2013-07-23 08:36:00,79.4,73.9,29.82,SW,221,2.0,6.0,83,0.00,,,0.00,WUHU216DAVISVP2,2013-07-23 13:36:00,
2013-07-23 08:41:00,79.6,73.7,29.82,WSW,237,2.0,5.0,82,0.00,,,0.00,WUHU216DAVISVP2,2013-07-23 13:41:00,
2013-07-23 08:46:00,79.9,73.5,29.82,WNW,297,7.0,7.0,81,0.00,,,0.00,WUHU216DAVISVP2,2013-07-23 13:46:00,
2013-07-23 08:51:00,80.3,73.6,29.82,WNW,302,3.0,8.0,80,0.00,,,0.00,WUHU216DAVISVP2,2013-07-23 13:51:00,
2013-07-23 08:56:00,80.8,73.8,29.82,West,266,3.0,8.0,79,0.00,,,0.00,WUHU216DAVISVP2,2013-07-23 13:56:00,
2013-07-23 09:01:00,81.0,73.6,29.83,WSW,256,3.0,6.0,78,0.00,,,0.00,WUHU216DAVISVP2,2013-07-23 14:01:00,
2013-07-23 09:06:00,81.1,73.4,29.83,SW,215,3.0,6.0,77,0.00,,,0.00,WUHU216DAVISVP2,2013-07-23 14:06:00,
2013-07-23 09:11:00,81.4,73.9,29.83,SSW,204,1.0,6.0,78,0.00,,,0.00,WUHU216DAVISVP2,2013-07-23 14:11:00,
2013-07-23 09:16:00,82.0,74.5,29.83,SSW,195,5.0,5.0,78,0.00,,,0.00,WUHU216DAVISVP2,2013-07-23 14:16:00,
2013-07-23 09:21:00,82.4,74.2,29.83,SW,220,5.0,6.0,76,0.00,,,0.00,WUHU216DAVISVP2,2013-07-23 14:21:00,
2013-07-23 09:26:00,82.9,74.7,29.83,SSW,203,4.0,6.0,76,0.00,,,0.00,WUHU216DAVISVP2,2013-07-23 14:26:00,
2013-07-23 09:31:00,83.1,74.2,29.83,SSW,206,6.0,7.0,74,0.00,,,0.00,WUHU216DAVISVP2,2013-07-23 14:31:00,
2013-07-23 09:36:00,83.6,74.0,29.83,SSW,213,4.0,7.0,73,0.00,,,0.00,WUHU216DAVISVP2,2013-07-23 14:36:00,
2013-07-23 09:41:00,83.9,74.9,29.83,SSW,198,4.0,7.0,74,0.00,,,0.00,WUHU216DAVISVP2,2013-07-23 14:41:00,
2013-07-23 09:46:00,83.7,74.3,29.83,SW,219,8.0,8.0,73,0.00,,,0.00,WUHU216DAVISVP2,2013-07-23 14:46:00,
2013-07-23 09:51:00,83.7,74.7,29.83,WSW,245,6.0,8.0,74,0.00,,,0.00,WUHU216DAVISVP2,2013-07-23 14:51:00,
2013-07-23 09:56:00,83.8,74.4,29.83,WSW,242,4.0,7.0,73,0.00,,,0.00,WUHU216DAVISVP2,2013-07-23 14:56:00,
2013-07-23 10:01:00,83.8,74.2,29.83,SSW,205,3.0,8.0,73,0.00,,,0.00,WUHU216DAVISVP2,2013-07-23 15:01:00,
2013-07-23 10:06:00,84.1,74.7,29.83,WSW,238,1.0,8.0,73,0.00,,,0.00,WUHU216DAVISVP2,2013-07-23 15:06:00,
2013-07-23 10:11:00,84.2,74.0,29.83,SW,217,5.0,7.0,71,0.00,,,0.00,WUHU216DAVISVP2,2013-07-23 15:11:00,
2013-07-23 10:16:00,84.3,74.9,29.83,SSW,205,3.0,7.0,73,0.00,,,0.00,WUHU216DAVISVP2,2013-07-23 15:16:00,
2013-07-23 10:21:00,84.5,74.7,29.82,SW,218,1.0,7.0,72,0.00,,,0.00,WUHU216DAVISVP2,2013-07-23 15:21:00,
2013-07-23 10:26:00,84.5,74.7,29.83,SW,216,4.0,7.0,72,0.00,,,0.00,WUHU216DAVISVP2,2013-07-23 15:26:00,
2013-07-23 10:31:00,84.7,74.3,29.82,SSW,212,2.0,6.0,71,0.00,,,0.00,WUHU216DAVISVP2,2013-07-23 15:31:00,
2013-07-23 10:36:00,85.0,75.0,29.82,NW,322,4.0,8.0,72,0.00,,,0.00,WUHU216DAVISVP2,2013-07-23 15:36:00,
2013-07-23 10:41:00,85.2,75.8,29.82,SW,234,8.0,8.0,73,0.00,,,0.00,WUHU216DAVISVP2,2013-07-23 15:41:00,
2013-07-23 10:46:00,85.5,75.3,29.83,SW,217,4.0,9.0,71,0.00,,,0.00,WUHU216DAVISVP2,2013-07-23 15:46:00,
2013-07-23 10:51:00,85.4,75.2,29.83,SW,233,2.0,9.0,71,0.00,,,0.00,WUHU216DAVISVP2,2013-07-23 15:51:00,
2013-07-23 10:56:00,85.5,75.3,29.83,WSW,257,5.0,7.0,71,0.00,,,0.00,WUHU216DAVISVP2,2013-07-23 15:56:00,
2013-07-23 11:01:00,85.6,75.4,29.83,SSW,198,3.0,7.0,71,0.00,,,0.00,WUHU216DAVISVP2,2013-07-23 16:01:00,
2013-07-23 11:06:00,85.9,75.0,29.83,SW,222,4.0,10.0,70,0.00,,,0.00,WUHU216DAVISVP2,2013-07-23 16:06:00,
2013-07-23 11:11:00,85.9,74.5,29.82,SSW,200,5.0,10.0,69,0.00,,,0.00,WUHU216DAVISVP2,2013-07-23 16:11:00,
2013-07-23 11:16:00,85.8,74.3,29.83,SSW,195,4.0,11.0,68,0.00,,,0.00,WUHU216DAVISVP2,2013-07-23 16:16:00,
2013-07-23 11:21:00,85.8,74.3,29.82,South,169,4.0,11.0,68,0.00,,,0.00,WUHU216DAVISVP2,2013-07-23 16:21:00,
2013-07-23 11:26:00,85.8,74.7,29.83,South,190,4.0,11.0,69,0.00,,,0.00,WUHU216DAVISVP2,2013-07-23 16:26:00,
2013-07-23 11:31:00,86.0,75.3,29.83,SSW,213,2.0,11.0,70,0.00,,,0.00,WUHU216DAVISVP2,2013-07-23 16:31:00,
2013-07-23 11:36:00,86.1,74.1,29.82,SSW,199,1.0,10.0,67,0.00,,,0.00,WUHU216DAVISVP2,2013-07-23 16:36:00,
2013-07-23 11:41:00,86.2,75.1,29.82,SW,224,8.0,10.0,69,0.00,,,0.00,WUHU216DAVISVP2,2013-07-23 16:41:00,
2013-07-23 11:46:00,86.4,75.0,29.83,WSW,243,3.0,10.0,69,0.00,,,0.00,WUHU216DAVISVP2,2013-07-23 16:46:00,
2013-07-23 11:51:00,86.6,76.1,29.82,SSW,203,2.0,10.0,71,0.00,,,0.00,WUHU216DAVISVP2,2013-07-23 16:51:00,
2013-07-23 11:56:00,86.8,74.8,29.82,SSW,200,7.0,11.0,67,0.00,,,0.00,WUHU216DAVISVP2,2013-07-23 16:56:00,
2013-07-23 12:01:00,87.0,76.7,29.82,South,191,4.0,11.0,71,0.00,,,0.00,WUHU216DAVISVP2,2013-07-23 17:01:00,
2013-07-23 12:06:00,87.4,76.7,29.82,WNW,285,4.0,10.0,70,0.00,,,0.00,WUHU216DAVISVP2,2013-07-23 17:06:00,
2013-07-23 12:11:00,87.4,76.2,29.82,SSW,200,4.0,8.0,69,0.00,,,0.00,WUHU216DAVISVP2,2013-07-23 17:11:00,
2013-07-23 12:16:00,87.6,76.0,29.82,West,278,1.0,9.0,68,0.00,,,0.00,WUHU216DAVISVP2,2013-07-23 17:16:00,
2013-07-23 12:21:00,87.7,75.2,29.81,SW,219,1.0,9.0,66,0.00,,,0.00,WUHU216DAVISVP2,2013-07-23 17:21:00,
2013-07-23 12:26:00,87.9,76.3,29.81,SW,233,4.0,6.0,68,0.00,,,0.00,WUHU216DAVISVP2,2013-07-23 17:26:00,
2013-07-23 12:31:00,88.0,75.2,29.81,WSW,249,6.0,8.0,66,0.00,,,0.00,WUHU216DAVISVP2,2013-07-23 17:31:00,
2013-07-23 12:36:00,88.3,75.5,29.81,WNW,284,4.0,8.0,66,0.00,,,0.00,WUHU216DAVISVP2,2013-07-23 17:36:00,
2013-07-23 12:41:00,88.2,76.6,29.80,NW,319,3.0,7.0,68,0.00,,,0.00,WUHU216DAVISVP2,2013-07-23 17:41:00,
2013-07-23 12:46:00,88.4,75.9,29.80,WNW,299,4.0,7.0,66,0.00,,,0.00,WUHU216DAVISVP2,2013-07-23 17:46:00,
2013-07-23 12:52:00,88.5,76.4,29.80,WSW,250,3.0,8.0,67,0.00,,,0.00,WUHU216DAVISVP2,2013-07-23 17:52:00,
2013-07-23 12:57:00,88.7,75.3,29.79,West,259,2.0,11.0,64,0.00,,,0.00,WUHU216DAVISVP2,2013-07-23 17:57:00,
2013-07-23 13:02:00,89.0,76.0,29.79,NW,311,3.0,11.0,65,0.00,,,0.00,WUHU216DAVISVP2,2013-07-23 18:02:00,
2013-07-23 13:07:00,89.0,75.1,29.79,NW,314,4.0,9.0,63,0.00,,,0.00,WUHU216DAVISVP2,2013-07-23 18:07:00,
2013-07-23 13:12:00,88.9,75.9,29.79,WNW,294,3.0,9.0,65,0.00,,,0.00,WUHU216DAVISVP2,2013-07-23 18:12:00,
2013-07-23 13:17:00,89.0,75.2,29.79,WSW,256,6.0,8.0,64,0.00,,,0.00,WUHU216DAVISVP2,2013-07-23 18:17:00,
2013-07-23 13:22:00,89.3,76.0,29.80,WSW,238,5.0,10.0,65,0.00,,,0.00,WUHU216DAVISVP2,2013-07-23 18:22:00,
2013-07-23 13:27:00,89.3,76.3,29.79,SSW,203,3.0,10.0,65,0.00,,,0.00,WUHU216DAVISVP2,2013-07-23 18:27:00,
2013-07-23 13:32:00,89.6,77.0,29.79,NNW,328,8.0,8.0,66,0.00,,,0.00,WUHU216DAVISVP2,2013-07-23 18:32:00,
2013-07-23 13:37:00,89.6,76.1,29.79,SW,233,4.0,9.0,64,0.00,,,0.00,WUHU216DAVISVP2,2013-07-23 18:37:00,
2013-07-23 13:42:00,89.7,75.7,29.79,North,352,5.0,11.0,63,0.00,,,0.00,WUHU216DAVISVP2,2013-07-23 18:42:00,
2013-07-23 13:48:00,89.8,75.8,29.79,West,260,3.0,11.0,63,0.00,,,0.00,WUHU216DAVISVP2,2013-07-23 18:48:00,
2013-07-23 13:53:00,89.9,76.4,29.79,West,266,5.0,10.0,64,0.00,,,0.00,WUHU216DAVISVP2,2013-07-23 18:53:00,
2013-07-23 13:58:00,89.6,76.6,29.79,West,266,6.0,8.0,65,0.00,,,0.00,WUHU216DAVISVP2,2013-07-23 18:58:00,
2013-07-23 14:03:00,89.9,78.2,29.79,WSW,247,7.0,7.0,68,0.00,,,0.00,WUHU216DAVISVP2,2013-07-23 19:03:00,
2013-07-23 14:08:00,90.0,76.6,29.79,NNW,330,7.0,7.0,65,0.00,,,0.00,WUHU216DAVISVP2,2013-07-23 19:08:00,
2013-07-23 14:14:00,89.9,76.1,29.79,WNW,288,4.0,7.0,64,0.00,,,0.00,WUHU216DAVISVP2,2013-07-23 19:14:00,
2013-07-23 14:19:00,89.9,76.9,29.78,WSW,257,5.0,7.0,65,0.00,,,0.00,WUHU216DAVISVP2,2013-07-23 19:19:00,
2013-07-23 14:24:00,90.0,76.5,29.78,WNW,297,8.0,11.0,64,0.00,,,0.00,WUHU216DAVISVP2,2013-07-23 19:24:00,
2013-07-23 14:29:00,90.2,77.6,29.78,NW,304,3.0,11.0,66,0.00,,,0.00,WUHU216DAVISVP2,2013-07-23 19:29:00,
2013-07-23 14:34:00,90.6,75.6,29.78,NNW,328,10.0,10.0,61,0.00,,,0.00,WUHU216DAVISVP2,2013-07-23 19:34:00,
2013-07-23 14:39:00,90.1,76.1,29.79,NNW,331,7.0,10.0,63,0.00,,,0.00,WUHU216DAVISVP2,2013-07-23 19:39:00,
2013-07-23 14:44:00,90.4,75.9,29.79,WNW,289,4.0,10.0,62,0.00,,,0.00,WUHU216DAVISVP2,2013-07-23 19:44:00,
2013-07-23 14:49:00,90.7,78.1,29.78,West,281,4.0,6.0,66,0.00,,,0.00,WUHU216DAVISVP2,2013-07-23 19:49:00,
2013-07-23 14:54:00,90.8,76.9,29.78,West,276,2.0,8.0,64,0.00,,,0.00,WUHU216DAVISVP2,2013-07-23 19:54:00,
2013-07-23 14:59:00,91.1,77.1,29.78,WNW,297,6.0,8.0,63,0.00,,,0.00,WUHU216DAVISVP2,2013-07-23 19:59:00,
2013-07-23 15:05:00,91.2,77.2,29.78,WNW,297,3.0,7.0,63,0.00,,,0.00,WUHU216DAVISVP2,2013-07-23 20:05:00,
2013-07-23 15:10:00,91.1,77.1,29.77,West,280,6.0,6.0,63,0.00,,,0.00,WUHU216DAVISVP2,2013-07-23 20:10:00,
2013-07-23 15:15:00,91.3,78.2,29.77,West,281,6.0,8.0,65,0.00,,,0.00,WUHU216DAVISVP2,2013-07-23 20:15:00,
2013-07-23 15:20:00,91.2,78.6,29.77,WNW,283,3.0,8.0,66,0.00,,,0.00,WUHU216DAVISVP2,2013-07-23 20:20:00,
2013-07-23 15:26:00,91.3,77.7,29.77,NW,309,2.0,7.0,64,0.00,,,0.00,WUHU216DAVISVP2,2013-07-23 20:26:00,
2013-07-23 15:31:00,91.8,77.7,29.77,West,276,2.0,7.0,63,0.00,,,0.00,WUHU216DAVISVP2,2013-07-23 20:31:00,
2013-07-23 15:36:00,91.4,77.8,29.78,WNW,286,3.0,7.0,64,0.00,,,0.00,WUHU216DAVISVP2,2013-07-23 20:36:00,
2013-07-23 15:41:00,90.9,76.9,29.78,WNW,290,5.0,7.0,63,0.00,,,0.00,WUHU216DAVISVP2,2013-07-23 20:41:00,
2013-07-23 15:46:00,90.9,76.6,29.77,WSW,253,6.0,7.0,63,0.00,,,0.00,WUHU216DAVISVP2,2013-07-23 20:46:00,
2013-07-23 15:51:00,91.1,75.3,29.77,NW,319,2.0,7.0,60,0.00,,,0.00,WUHU216DAVISVP2,2013-07-23 20:51:00,
2013-07-23 15:56:00,91.0,75.0,29.77,West,281,6.0,7.0,59,0.00,,,0.00,WUHU216DAVISVP2,2013-07-23 20:56:00,
2013-07-23 16:01:00,91.2,75.7,29.76,North,358,2.0,7.0,60,0.00,,,0.00,WUHU216DAVISVP2,2013-07-23 21:01:00,
2013-07-23 16:06:00,91.4,75.4,29.76,NW,320,6.0,7.0,59,0.00,,,0.00,WUHU216DAVISVP2,2013-07-23 21:06:00,
2013-07-23 16:11:00,91.5,76.0,29.76,West,280,4.0,7.0,60,0.00,,,0.00,WUHU216DAVISVP2,2013-07-23 21:11:00,
2013-07-23 16:17:00,91.5,75.5,29.76,WNW,290,3.0,7.0,59,0.00,,,0.00,WUHU216DAVISVP2,2013-07-23 21:17:00,
2013-07-23 16:22:00,91.6,76.1,29.77,WNW,295,4.0,8.0,60,0.00,,,0.00,WUHU216DAVISVP2,2013-07-23 21:22:00,
2013-07-23 16:27:00,91.6,77.1,29.77,WNW,291,1.0,8.0,62,0.00,,,0.00,WUHU216DAVISVP2,2013-07-23 21:27:00,
2013-07-23 16:32:00,91.6,76.2,29.77,West,277,2.0,8.0,61,0.00,,,0.00,WUHU216DAVISVP2,2013-07-23 21:32:00,
2013-07-23 16:37:00,91.6,77.1,29.76,NW,319,3.0,7.0,62,0.00,,,0.00,WUHU216DAVISVP2,2013-07-23 21:37:00,
2013-07-23 16:42:00,91.5,75.5,29.77,WNW,288,4.0,8.0,59,0.00,,,0.00,WUHU216DAVISVP2,2013-07-23 21:42:00,
2013-07-23 16:47:00,91.6,76.2,29.77,WNW,302,2.0,8.0,61,0.00,,,0.00,WUHU216DAVISVP2,2013-07-23 21:47:00,
2013-07-23 16:53:00,90.9,77.3,29.77,NNW,335,4.0,7.0,64,0.00,,,0.00,WUHU216DAVISVP2,2013-07-23 21:53:00,
2013-07-23 16:58:00,91.0,77.9,29.76,WNW,296,4.0,7.0,65,0.00,,,0.00,WUHU216DAVISVP2,2013-07-23 21:58:00,
2013-07-23 17:03:00,90.8,77.3,29.76,NW,321,7.0,10.0,64,0.00,,,0.00,WUHU216DAVISVP2,2013-07-23 22:03:00,
2013-07-23 17:08:00,90.0,77.4,29.76,NNW,330,6.0,11.0,66,0.00,,,0.00,WUHU216DAVISVP2,2013-07-23 22:08:00,
2013-07-23 17:13:00,89.5,77.8,29.75,NNW,330,3.0,11.0,68,0.00,,,0.00,WUHU216DAVISVP2,2013-07-23 22:13:00,
2013-07-23 17:18:00,89.3,77.2,29.75,NNW,342,5.0,10.0,67,0.00,,,0.00,WUHU216DAVISVP2,2013-07-23 22:18:00,
2013-07-23 17:23:00,89.4,77.0,29.75,NNW,328,7.0,11.0,67,0.00,,,0.00,WUHU216DAVISVP2,2013-07-23 22:23:00,
2013-07-23 17:28:00,89.2,75.7,29.75,WNW,283,4.0,11.0,64,0.00,,,0.00,WUHU216DAVISVP2,2013-07-23 22:28:00,
2013-07-23 17:33:00,89.2,77.1,29.75,NNW,332,6.0,10.0,67,0.00,,,0.00,WUHU216DAVISVP2,2013-07-23 22:33:00,
2013-07-23 17:38:00,89.2,76.4,29.75,NW,323,8.0,10.0,66,0.00,,,0.00,WUHU216DAVISVP2,2013-07-23 22:38:00,
2013-07-23 17:44:00,89.0,77.4,29.75,NW,323,6.0,10.0,68,0.00,,,0.00,WUHU216DAVISVP2,2013-07-23 22:44:00,
2013-07-23 17:49:00,89.1,76.6,29.74,North,352,4.0,10.0,66,0.00,,,0.00,WUHU216DAVISVP2,2013-07-23 22:49:00,
2013-07-23 17:54:00,89.5,76.9,29.74,NW,311,2.0,8.0,66,0.00,,,0.00,WUHU216DAVISVP2,2013-07-23 22:54:00,
2013-07-23 17:59:00,89.3,77.2,29.74,NW,323,8.0,8.0,67,0.00,,,0.00,WUHU216DAVISVP2,2013-07-23 22:59:00,
2013-07-23 18:04:00,88.9,76.4,29.75,East,98,0.0,8.0,66,0.00,,,0.00,WUHU216DAVISVP2,2013-07-23 23:04:00,
2013-07-23 18:09:00,89.2,76.7,29.75,NNW,335,5.0,8.0,66,0.00,,,0.00,WUHU216DAVISVP2,2013-07-23 23:09:00,
2013-07-23 18:14:00,89.2,76.2,29.75,East,90,1.0,5.0,65,0.00,,,0.00,WUHU216DAVISVP2,2013-07-23 23:14:00,
2013-07-23 18:19:00,89.4,75.9,29.75,ENE,67,0.0,5.0,64,0.00,,,0.00,WUHU216DAVISVP2,2013-07-23 23:19:00,
2013-07-23 18:24:00,89.3,75.4,29.74,North,3,1.0,5.0,63,0.00,,,0.00,WUHU216DAVISVP2,2013-07-23 23:24:00,
2013-07-23 18:29:00,89.0,75.1,29.75,East,89,1.0,5.0,63,0.00,,,0.00,WUHU216DAVISVP2,2013-07-23 23:29:00,
2013-07-23 18:34:00,88.9,75.4,29.75,ENE,58,1.0,5.0,64,0.00,,,0.00,WUHU216DAVISVP2,2013-07-23 23:34:00,
2013-07-23 18:40:00,88.2,75.2,29.76,NE,41,1.0,7.0,65,0.00,,,0.00,WUHU216DAVISVP2,2013-07-23 23:40:00,
2013-07-23 18:45:00,87.8,75.8,29.77,NNE,31,1.0,10.0,67,0.00,,,0.00,WUHU216DAVISVP2,2013-07-23 23:45:00,
2013-07-23 18:50:00,87.5,75.0,29.77,NW,326,3.0,10.0,66,0.00,,,0.00,WUHU216DAVISVP2,2013-07-23 23:50:00,
2013-07-23 18:55:00,87.0,75.4,29.78,NNW,347,2.0,7.0,68,0.00,,,0.00,WUHU216DAVISVP2,2013-07-23 23:55:00,
2013-07-23 19:00:00,86.3,74.8,29.78,NNW,333,2.0,8.0,68,0.00,,,0.00,WUHU216DAVISVP2,2013-07-24 00:00:00,
2013-07-23 19:05:00,85.7,74.6,29.79,NNW,348,2.0,8.0,69,0.00,,,0.00,WUHU216DAVISVP2,2013-07-24 00:05:00,
2013-07-23 19:10:00,85.0,74.1,29.79,NNW,339,2.0,5.0,70,0.00,,,0.00,WUHU216DAVISVP2,2013-07-24 00:10:00,
2013-07-23 19:15:00,84.6,74.4,29.79,NW,321,0.0,5.0,71,0.00,,,0.00,WUHU216DAVISVP2,2013-07-24 00:15:00,
2013-07-23 19:20:00,84.0,74.2,29.79,NW,326,0.0,3.0,72,0.00,,,0.00,WUHU216DAVISVP2,2013-07-24 00:20:00,
2013-07-23 19:25:00,83.7,74.3,29.79,SW,231,0.0,3.0,73,0.00,,,0.00,WUHU216DAVISVP2,2013-07-24 00:25:00,
2013-07-23 19:30:00,83.5,73.7,29.79,SW,231,0.0,0.0,72,0.00,,,0.00,WUHU216DAVISVP2,2013-07-24 00:30:00,
2013-07-23 19:35:00,83.2,73.5,29.78,SW,231,0.0,0.0,72,0.00,,,0.00,WUHU216DAVISVP2,2013-07-24 00:35:00,
2013-07-23 19:41:00,83.0,73.3,29.78,SW,231,0.0,1.0,72,0.00,,,0.00,WUHU216DAVISVP2,2013-07-24 00:41:00,
2013-07-23 19:46:00,82.7,73.2,29.77,SW,231,0.0,1.0,73,0.00,,,0.00,WUHU216DAVISVP2,2013-07-24 00:46:00,
2013-07-23 19:51:00,82.5,72.8,29.77,SSE,148,0.0,1.0,72,0.00,,,0.00,WUHU216DAVISVP2,2013-07-24 00:51:00,
2013-07-23 19:56:00,82.3,73.0,29.77,ENE,72,0.0,1.0,73,0.00,,,0.00,WUHU216DAVISVP2,2013-07-24 00:56:00,
2013-07-23 20:01:00,82.0,73.5,29.78,NW,323,1.0,2.0,75,0.00,,,0.00,WUHU216DAVISVP2,2013-07-24 01:01:00,
2013-07-23 20:06:00,81.2,73.3,29.78,NNW,337,2.0,3.0,77,0.00,,,0.00,WUHU216DAVISVP2,2013-07-24 01:06:00,
2013-07-23 20:11:00,80.6,73.6,29.78,NNW,332,1.0,3.0,79,0.00,,,0.00,WUHU216DAVISVP2,2013-07-24 01:11:00,
2013-07-23 20:16:00,80.3,73.7,29.79,NNW,340,0.0,3.0,80,0.00,,,0.00,WUHU216DAVISVP2,2013-07-24 01:16:00,
2013-07-23 20:22:00,80.2,73.6,29.79,NW,321,1.0,4.0,80,0.00,,,0.00,WUHU216DAVISVP2,2013-07-24 01:22:00,
2013-07-23 20:27:00,79.9,73.2,29.79,North,3,3.0,4.0,80,0.00,,,0.00,WUHU216DAVISVP2,2013-07-24 01:27:00,
2013-07-23 20:32:00,79.8,73.1,29.80,NNW,337,4.0,4.0,80,0.00,,,0.00,WUHU216DAVISVP2,2013-07-24 01:32:00,
2013-07-23 20:37:00,79.8,73.2,29.81,North,356,3.0,5.0,80,0.00,,,0.00,WUHU216DAVISVP2,2013-07-24 01:37:00,
2013-07-23 20:42:00,79.7,73.1,29.81,NNW,341,0.0,5.0,80,0.00,,,0.00,WUHU216DAVISVP2,2013-07-24 01:42:00,
2013-07-23 20:47:00,79.6,73.0,29.81,NNW,340,0.0,2.0,80,0.00,,,0.00,WUHU216DAVISVP2,2013-07-24 01:47:00,
2013-07-23 20:53:00,79.6,72.5,29.81,NE,38,0.0,2.0,79,0.00,,,0.00,WUHU216DAVISVP2,2013-07-24 01:53:00,
2013-07-23 20:58:00,79.7,72.7,29.82,NNE,28,0.0,2.0,79,0.00,,,0.00,WUHU216DAVISVP2,2013-07-24 01:58:00,
2013-07-23 21:03:00,79.8,72.1,29.82,NE,53,0.0,4.0,77,0.00,,,0.00,WUHU216DAVISVP2,2013-07-24 02:03:00,
2013-07-23 21:08:00,80.1,72.4,29.83,NNE,18,2.0,4.0,77,0.00,,,0.00,WUHU216DAVISVP2,2013-07-24 02:08:00,
2013-07-23 21:14:00,80.0,72.3,29.83,NNW,345,0.0,5.0,77,0.00,,,0.00,WUHU216DAVISVP2,2013-07-24 02:14:00,
2013-07-23 21:19:00,80.0,72.3,29.84,NE,53,0.0,5.0,77,0.00,,,0.00,WUHU216DAVISVP2,2013-07-24 02:19:00,
2013-07-23 21:24:00,79.9,72.0,29.84,NNW,328,2.0,4.0,77,0.00,,,0.00,WUHU216DAVISVP2,2013-07-24 02:24:00,
2013-07-23 21:29:00,79.9,72.6,29.84,ESE,102,1.0,4.0,78,0.00,,,0.00,WUHU216DAVISVP2,2013-07-24 02:29:00,
2013-07-23 21:34:00,79.8,72.1,29.85,North,8,2.0,6.0,77,0.00,,,0.00,WUHU216DAVISVP2,2013-07-24 02:34:00,
2013-07-23 21:39:00,79.7,72.0,29.84,ENE,69,0.0,7.0,77,0.00,,,0.00,WUHU216DAVISVP2,2013-07-24 02:39:00,
2013-07-23 21:44:00,79.5,72.2,29.85,NE,49,0.0,7.0,78,0.00,,,0.00,WUHU216DAVISVP2,2013-07-24 02:44:00,
2013-07-23 21:49:00,79.3,72.3,29.85,ENE,70,0.0,4.0,79,0.00,,,0.00,WUHU216DAVISVP2,2013-07-24 02:49:00,
2013-07-23 21:54:00,79.1,72.2,29.85,NW,312,0.0,4.0,79,0.00,,,0.00,WUHU216DAVISVP2,2013-07-24 02:54:00,
2013-07-23 22:00:00,79.0,71.7,29.85,ENE,73,1.0,4.0,78,0.00,,,0.00,WUHU216DAVISVP2,2013-07-24 03:00:00,
2013-07-23 22:05:00,79.0,70.6,29.86,ESE,122,1.0,4.0,75,0.00,,,0.00,WUHU216DAVISVP2,2013-07-24 03:05:00,
2013-07-23 22:10:00,79.0,70.6,29.86,ENE,65,3.0,3.0,75,0.00,,,0.00,WUHU216DAVISVP2,2013-07-24 03:10:00,
2013-07-23 22:15:00,79.0,69.8,29.86,ENE,75,2.0,9.0,73,0.00,,,0.00,WUHU216DAVISVP2,2013-07-24 03:15:00,
2013-07-23 22:20:00,79.0,69.8,29.86,ENE,60,2.0,9.0,73,0.00,,,0.00,WUHU216DAVISVP2,2013-07-24 03:20:00,
2013-07-23 22:26:00,79.0,69.8,29.86,ENE,73,2.0,5.0,73,0.00,,,0.00,WUHU216DAVISVP2,2013-07-24 03:26:00,
2013-07-23 22:31:00,78.9,69.3,29.86,NE,53,4.0,7.0,72,0.00,,,0.00,WUHU216DAVISVP2,2013-07-24 03:31:00,
2013-07-23 22:36:00,78.7,69.3,29.86,ENE,70,2.0,7.0,73,0.00,,,0.00,WUHU216DAVISVP2,2013-07-24 03:36:00,
2013-07-23 22:41:00,78.4,69.2,29.86,ENE,76,1.0,6.0,73,0.00,,,0.00,WUHU216DAVISVP2,2013-07-24 03:41:00,
2013-07-23 22:47:00,78.2,69.0,29.86,ENE,67,0.0,5.0,73,0.00,,,0.00,WUHU216DAVISVP2,2013-07-24 03:47:00,
2013-07-23 22:51:00,77.9,69.1,29.86,NNW,338,0.0,4.0,74,0.00,,,0.00,WUHU216DAVISVP2,2013-07-24 03:51:00,
2013-07-23 22:57:00,77.6,68.8,29.86,East,79,0.0,3.0,74,0.00,,,0.00,WUHU216DAVISVP2,2013-07-24 03:57:00,
2013-07-23 23:01:00,77.6,68.8,29.87,ENE,75,1.0,2.0,74,0.00,,,0.00,WUHU216DAVISVP2,2013-07-24 04:01:00,
2013-07-23 23:06:00,77.6,69.2,29.87,ENE,74,0.0,2.0,75,0.00,,,0.00,WUHU216DAVISVP2,2013-07-24 04:06:00,
2013-07-23 23:11:00,77.5,69.1,29.87,ENE,72,0.0,2.0,75,0.00,,,0.00,WUHU216DAVISVP2,2013-07-24 04:11:00,
2013-07-23 23:16:00,77.4,69.4,29.87,ENE,75,1.0,2.0,76,0.00,,,0.00,WUHU216DAVISVP2,2013-07-24 04:16:00,
2013-07-23 23:21:00,77.3,68.9,29.86,ENE,77,3.0,3.0,75,0.00,,,0.00,WUHU216DAVISVP2,2013-07-24 04:21:00,
2013-07-23 23:26:00,77.3,69.3,29.86,ENE,61,2.0,3.0,76,0.00,,,0.00,WUHU216DAVISVP2,2013-07-24 04:26:00,
2013-07-23 23:31:00,77.1,69.1,29.86,ENE,77,2.0,7.0,76,0.00,,,0.00,WUHU216DAVISVP2,2013-07-24 04:31:00,
2013-07-23 23:36:00,76.8,68.8,29.87,ENE,72,0.0,7.0,76,0.00,,,0.00,WUHU216DAVISVP2,2013-07-24 04:36:00,
2013-07-23 23:41:00,76.6,68.6,29.87,East,80,0.0,2.0,76,0.00,,,0.00,WUHU216DAVISVP2,2013-07-24 04:41:00,
2013-07-23 23:46:00,76.5,68.9,29.87,East,97,0.0,1.0,77,0.00,,,0.00,WUHU216DAVISVP2,2013-07-24 04:46:00,
2013-07-23 23:51:00,76.3,68.7,29.87,East,84,0.0,1.0,77,0.00,,,0.00,WUHU216DAVISVP2,2013-07-24 04:51:00,
2013-07-23 23:56:00,76.2,68.6,29.87,North,352,0.0,1.0,77,0.00,,,0.00,WUHU216DAVISVP2,2013-07-24 04:56:00,